Home   Weather   St. Pölten   Past weeks
Flag for Austria

Past Weather in St. Pölten, Lower Austria, Austria — Yesterday and Last 2 Weeks

Now
60 °F

Cool.


Feels Like: 60 °F
Forecast: 79 / 54 °F
Wind: 2 mph from Northwest

Location: Wien / Hohe Warte

Current Time: Jul 17, 2019 at 3:32:01 am

Latest Report: Jul 17, 2019 at 2:00 am


Visibility: N/A

Pressure: 29.98 "Hg

Humidity: 71%

Dew Point: 51 °F

Location of St. PöltenLocation

Past Weather in St. Pölten — Graph

°F

St. Pölten Temperature Yesterday

Maximum temperature yesterday: 79 °F (at 5:00 pm)
Minimum temperature yesterday: 57 °F (at 5:00 am)
Average temperature yesterday: 69 °F

High & Low Weather Summary for the Past Weeks

 TemperatureHumidityPressure
High92 °F (Jul 6, 5:00 pm)90% (Jul 13, 10:00 am)30.19 "Hg (Jul 13, 10:00 am)
Low57 °F (Jul 16, 5:00 am)20% (Jul 6, 5:00 pm)29.70 "Hg (Jul 6, 9:00 pm)
Average69 °F58%29.94 "Hg
* Reported Jul 2 2:00 am — Jul 17 2:00 am, St. Pölten. Weather by CustomWeather, © 2019

Note: Actual official high and low records may vary slightly from our data, if they occured in-between our weather recording intervals... More about our weather records

Advertising

St. Pölten Weather History for the Previous 24 Hours

Scroll right to see more
 ConditionsComfort  
Time TempWeatherWind HumidityBarometerVisibility
2:00 am
Wed, Jul 17
60 °FCool.2 mph71%29.98 "HgN/A
1:00 am61 °FCool.No wind69%29.97 "HgN/A
12:00 am63 °FMild.1 mph68%29.96 "HgN/A
11:00 pm
Tue, Jul 16
65 °FPassing clouds.2 mph65%29.93 "Hg19 mi
9:00 pm71 °FPassing clouds.2 mph54%29.90 "Hg25 mi
8:00 pm74 °FScattered clouds.5 mph48%29.88 "Hg25 mi
7:00 pm76 °FScattered clouds.3 mph47%29.87 "Hg25 mi
6:00 pm77 °FScattered clouds.6 mph43%29.86 "Hg28 mi
5:00 pm79 °FScattered clouds.6 mph43%29.87 "Hg28 mi
4:00 pm74 °FOvercast.7 mph49%29.89 "Hg28 mi
2:00 pm76 °FPartly sunny.5 mph50%29.90 "Hg28 mi
12:00 pm75 °FPartly sunny.2 mph53%29.92 "Hg22 mi
11:00 am73 °FPartly sunny.1 mph59%29.93 "Hg22 mi
10:00 am70 °FScattered clouds.1 mph59%29.95 "Hg22 mi
9:00 am68 °FScattered clouds.2 mph60%29.96 "Hg22 mi
7:00 am61 °FScattered clouds.No wind79%29.96 "Hg22 mi
5:00 am57 °FCool.1 mph83%29.96 "HgN/A
4:00 am58 °FCool.1 mph81%29.96 "HgN/A
Weather by CustomWeather, © 2019

See weather overview